Location: Pl�tzky
(52.0521°N, 11.8020°E)
Time: 10:28:16
(UTC+00:00)

N. Korean satellite - Pass Details

Date: 03 February 2021
Orbit: 451 x 502 km, 97.2° (Epoch: 07 March)

Event Time Altitude Azimuth Distance (km) Brightness Sun altitude
Rises 05:22:18 0° 7° (N) 2,494 10.2 -13.6°
Reaches altitude 10° 05:24:25 10° 360° (N) 1,609 9.1 -13.2°
Maximum altitude 05:27:40 39° 290° (WNW) 694 6.8 -12.7°
Drops below altitude 10° 05:30:51 10° 220° (SW) 1,586 8.9 -12.3°
Sets 05:32:56 0° 213° (SSW) 2,453 9.9 -11.9°
